星链-2431 (STARLINK-2431 )

导读

STARLINK-2431是美国SpaceX公司星链(Starlink)项目旗下的一颗低轨通信卫星,于2021年3月11日发射入轨,目前运行在近地点高度546km、远地点高度548km的近地轨道,轨道倾角约53.05°,每日绕地球约15圈,承担着为全球用户提供低延迟高速互联网接入服务的任务,是星链全球卫星互联网星座组网过程中的重要组成单元。

基本信息
目录编号:
47839
目录名称:
STARLINK-2431
国际标识:
2021-018BE
轨道中心:
EARTH
卫星名称:
星链-2431
卫星全名:
星链-2431 (STARLINK-2431 )
卫星状态:
在轨 (已飞行1925 天)
发射日期:
2021-03-11 UTC
国别 :
美国 (US)
星等 :
--
轨道信息
数据来源 国际轨道数据 AOE轨道数据
星历时间 2026-06-18T10:39:56+0800
13小时前
查看轨道信息
2026-06-12T01:00:00+0800
6天前
查看轨道信息
半长轴 6848.864km 6848.851km
偏心率 0.0001366 0.0001596
轨道倾角 53.159° 53.158°
近地点辐角 87.480° 74.140°
升交点赤经 109.790° 139.603°
平近点角 272.635° 240.944°
近地点 469.791km 469.62km
远地点 471.663km 471.808km
周期 94.013分钟 94.013分钟
每日圈数 15.317045 15.31709
详细信息
固有亮度:
5
最大亮度:
2.5
卫星平台:
Starlink V1.0
覆盖范围:
全球
运营商:
太空探索技术公司
运营商所在国:
美国
制造商(研发单位):
太空探索技术公司
制造商所在国:
美国
使用方式:
暂无
卫星简介
星链(Starlink)计划是由太空探索技术公司(SpaceX)提出的一个巨型低轨卫星互联网星座项目,计划在2019年至2024年间在太空搭建由约1.2万颗卫星组成的“星链”网络,其中1584颗将部署在地球上空550千米处的近地轨道,并从2020年开始工作。该卫星仍在工作。
2D轨道图
3D轨道图
轨道高度分析图
轨道倾角分析图
轨道综合分析图
查看轨道综合分析图